Regional Weather Roundup
Issued by NWS

Home | Current Version | Previous Version | Text Only | Print | Product List | Glossary Off
Versions: 1 2 3 4 5 6 7 8 9 10 11 12 13 14 15 16 17 18 19 20 21 22 23 24 25 26 27 28 29 30 31 32 33 34 35 36 37 38 39 40 41 42 43 44 45 46 47 48 49 50

000
ASUS44 KMEG 042010
RWRTN
TENNESSEE HOURLY STATE WEATHER ROUNDUP
NATIONAL WEATHER SERVICE MEMPHIS TN
200 PM CST WED MAR 04 2015

TNZ002-004-019-021-049-052-054-088>092-042100-
WEST TENNESSEE

CITY           SKY/WX    TMP DP  RH WIND       PRES   REMARKS
MEMPHIS INTL   RAIN      38  35  89 N13G23    29.99R FOG     WCI  30
NWS MEMPHIS      N/A     37 N/A N/A MISG        N/A
JACKSON        RAIN      37  35  92 N20       29.97F FOG     WCI  27
DYERSBURG      CLOUDY    34  21  60 N20G25    30.02F WCI  22
UNION CITY     CLOUDY    30  28  93 N16       30.04R WCI  19
PARIS          CLOUDY    32  30  93 N15       30.01R WCI  22
SAVANNAH       CLOUDY    45  45 100 N13       29.91S
$$

TNZ008-025-027-028-033-062-065-066-042100-
NORTH MIDDLE TENNESSEE

CITY           SKY/WX    TMP DP  RH WIND       PRES   REMARKS
NASHVILLE      RAIN      43  41  93 N16       29.91F FOG
CLARKSVILLE    HVY RAIN  35  33  92 N14G23    30.00R FOG     WCI  26
SMYRNA         HVY RAIN  46  44  93 N10       29.92S FOG
COOKEVILLE     CLOUDY    52  52 100 N7        29.83F VSB 1
CROSSVILLE     RAIN      52  50  93 NE6       29.86F FOG
$$

TNZ061-075-076-078-094-096-097-042100-
SOUTH MIDDLE TENNESSEE

CITY           SKY/WX    TMP DP  RH WIND       PRES   REMARKS
FAYETTEVILLE   CLOUDY    66  61  82 SW13        N/A
TULLAHOMA      CLOUDY    54  54 100 N8        29.84F VSB 1
WINCHESTER     PTSUNNY   72  61  68 S14       29.81F
MCMINNVILLE    CLOUDY    54  54 100 N8        29.85F
COLUMBIA       CLOUDY   N/A N/A N/A N8        29.88R VSB 1/2
SHELBYVILLE    CLOUDY    50  50 100 N13       29.86F
$$

TNZ017-018-042-046-047-042100-
NORTHEAST TENNESSEE

CITY           SKY/WX    TMP DP  RH WIND       PRES   REMARKS
TRI CITIES     CLOUDY    70  55  59 W20G29    29.82F
ELIZABETHTON   MOCLDY    72  52  49 W9        29.82F
$$

TNZ012-013-036-069-073-074-042100-
CENTRAL EAST TENNESSEE

CITY           SKY/WX    TMP DP  RH WIND       PRES   REMARKS
KNOXVILLE      PTSUNNY   71  59  65 SW24G36   29.81F
OAK RIDGE      CLOUDY    69  59  70 SW10G18   29.81F
GATLINBURG     PTCLDY    73  54  49 SW21      29.80F
MORRISTOWN     PTCLDY    72  57  60 SW25      29.81F
$$

TNZ083-085-099-042100-
SOUTHEAST TENNESSEE

CITY           SKY/WX    TMP DP  RH WIND       PRES   REMARKS
CHATTANOOGA    PTSUNNY   73  60  63 S17G26    29.85F
$$

SKY/WX REPORTED AS FAIR MEANS FEW OR NO CLOUDS BELOW
12 THOUSAND FEET.



USA.gov is the U.S. government's official web portal to all federal, state and local government web resources and services.